[[{"header":{"parameterUnit":"m.s-1","parameterCategory":1,"la1":30.2992,"la2":30.254,"lo1":-89.0895,"lo2":-89.0443,"dy":0.0025,"dx":0.0025,"nx":19,"ny":19,"refTime":"2026-03-23T21:00:00:Z","depth":0,"parameterNumber":2,"parameterNumberName":"U-component_of_WINDS"},"data":[0,0,0,-1.1006,-1.1006,-1.0989,-1.0989,-1.099,-1.099,0,0,0,0,0,0,0,0,0,0,0,-1.1023,-1.1024,-1.1006,-1.1006,-1.0989,-1.0989,-1.099,-1.099,0,0,0,0,0,0,0,0,0,0,0,-1.1023,-1.1024,-1.1024,-1.1006,-1.0989,-1.0989,-1.099,-1.0995,0,0,0,0,0,0,0,0,0,0,-1.1007,-1.1036,-1.1024,-1.1024,-1.1006,-1.0989,-1.0989,-1.0995,-1.0995,-1.1007,0,-1.1021,0,-1.1006,-1.0992,-1.0992,0,0,0,-1.0997,-1.1036,-1.102,-1.1024,-1.1006,-1.0989,-1.0994,-1.0994,-1.0994,-1.1007,-1.102,-1.102,-1.1006,-1.0992,-1.0992,-1.1094,-1.1095,0,0,-1.0998,-1.1027,-1.102,-1.102,-1.1023,-1.0995,-1.0994,-1.0994,-1.1011,-1.102,-1.102,-1.1006,-1.0992,-1.0992,-1.1093,-1.1094,0,0,0,-1.1006,-1.1029,-1.1012,-1.1021,-1.1016,-1.0994,-1.0993,-1.1011,-1.1003,-1.1019,-1.1006,-1.0992,-1.0993,-1.1092,-1.1093,-1.1168,0,0,0,-1.1006,-1.1033,-1.1013,-1.1031,-1.1017,-1.1013,-1.1011,-1.1003,-1.1002,-1.1006,-1.0992,-1.0993,-1.1091,-1.1092,-1.1164,-1.1199,0,0,0,-1.102,-1.1035,-1.1037,-1.1033,-1.1026,-1.1012,-1.1004,-1.1002,-1.0994,-1.0992,-1.0993,-1.109,-1.1092,-1.116,-1.1192,-1.1236,0,0,0,-1.1044,-1.1103,-1.1038,-1.1099,-1.1027,-1.1058,-1.1004,-1.1025,-1.1032,-1.0992,-1.1091,-1.1093,-1.1159,-1.1188,-1.1232,-1.1279,-1.1301,0,0,-1.1135,-1.1115,-1.1148,-1.109,-1.1141,-1.1058,-1.112,-1.1098,-1.107,-1.1088,-1.109,-1.1165,-1.1192,-1.1235,-1.141,-1.1427,0,0,0,-1.1187,-1.1212,-1.1219,-1.1226,-1.1211,-1.1201,-1.1166,-1.1158,-1.1172,-1.1085,-1.119,-1.1205,-1.123,-1.1251,-1.1266,-1.1286,-1.1103,-1.1103,-1.1103,-1.1361,-1.1322,-1.1375,-1.1336,-1.1344,-1.1308,-1.1312,-1.1295,-1.1253,-1.1279,-1.1285,-1.1395,-1.1421,-1.1432,-1.1453,-1.1305,-1.1305,-1.1305,-1.1305,-1.1493,-1.1522,-1.1466,-1.1498,-1.1457,-1.1484,-1.1452,-1.1422,-1.1442,-1.1387,-1.1407,-1.1353,-1.1453,-1.1469,-1.1311,-1.131,-1.1309,-1.1308,-1.1308,-1.1604,-1.1611,-1.16,-1.1608,-1.1619,-1.1576,-1.1598,-1.156,-1.1524,-1.1543,-1.1547,-1.1545,-1.1541,-1.1547,-1.1547,-1.1548,-1.1548,-1.1548,-1.1549,-1.1724,-1.1709,-1.1732,-1.1721,-1.1722,-1.1718,-1.1683,-1.1683,-1.1673,-1.1644,-1.1644,-1.1602,-1.1469,-1.1437,-1.1554,-1.1553,-1.1553,-1.1552,-1.1552,-1.1876,-1.1836,-1.1871,-1.1872,-1.1857,-1.1872,-1.1822,-1.1826,-1.182,-1.1833,-1.1786,-1.1693,-1.167,-1.1658,-1.1632,-1.1792,-1.1792,-1.1792,-1.1792,-1.1972,-1.1956,-1.1984,-1.1989,-1.1988,-1.1947,-1.1991,-1.1965,-1.1931,-1.1926,-1.1897,-1.1858,-1.1848,-1.1831,-1.1815,-1.1791,-1.1988,-1.1988,-1.1988,-1.2064,-1.2047,-1.2091,-1.2057,-1.2042,-1.2031,-1.2072,-1.208,-1.2034,-1.1995,-1.1922,-1.1914,-1.1851,-1.1832,-1.1794,-1.177,-1.1724,0,0]},{"header":{"parameterUnit":"m.s-1","parameterCategory":1,"la1":30.2992,"la2":30.254,"lo1":-89.0895,"lo2":-89.0443,"dy":0.0025,"dx":0.0025,"nx":19,"ny":19,"refTime":"2026-03-23T21:00:00:Z","depth":0,"parameterNumber":3,"parameterNumberName":"V-component_of_WINDS"},"data":[0,0,0,0.5384,0.5383,0.5322,0.5322,0.524,0.524,0,0,0,0,0,0,0,0,0,0,0,0.5401,0.54,0.5384,0.5383,0.5322,0.5322,0.524,0.524,0,0,0,0,0,0,0,0,0,0,0,0.5401,0.54,0.54,0.5383,0.5322,0.5322,0.5241,0.5288,0,0,0,0,0,0,0,0,0,0,0.5347,0.5361,0.54,0.54,0.5382,0.5322,0.5322,0.529,0.5285,0.5266,0,0.525,0,0.5244,0.5234,0.5234,0,0,0,0.5384,0.5365,0.5351,0.5399,0.5382,0.5323,0.535,0.5287,0.5281,0.5259,0.5249,0.5246,0.5242,0.5233,0.5233,0.5124,0.5124,0,0,0.5387,0.5389,0.5355,0.5347,0.5357,0.5352,0.5348,0.5283,0.5272,0.5249,0.5244,0.5241,0.5233,0.5232,0.5125,0.5124,0,0,0,0.5396,0.5391,0.5378,0.535,0.5339,0.535,0.5346,0.5275,0.5271,0.5244,0.524,0.5232,0.5231,0.5125,0.5124,0.5097,0,0,0,0.5398,0.5396,0.5379,0.538,0.5341,0.5307,0.5339,0.5275,0.5268,0.524,0.5232,0.523,0.5126,0.5125,0.5099,0.5082,0,0,0,0.5405,0.5397,0.5388,0.538,0.5354,0.5308,0.53,0.5274,0.5266,0.5233,0.523,0.5126,0.5125,0.5101,0.5085,0.5051,0,0,0,0.5413,0.5366,0.5388,0.5333,0.5355,0.5292,0.53,0.5254,0.5223,0.5232,0.5126,0.5124,0.5101,0.5087,0.5053,0.5021,0.5009,0,0,0.5354,0.5359,0.5326,0.5344,0.5278,0.5301,0.5231,0.5201,0.5197,0.5148,0.5146,0.5098,0.5086,0.5052,0.4944,0.4934,0,0,0,0.5308,0.5284,0.5267,0.5238,0.5214,0.5192,0.5173,0.5162,0.5121,0.5173,0.5079,0.5071,0.5051,0.5035,0.5027,0.5008,0.5118,0.5118,0.5119,0.5225,0.5222,0.5167,0.5156,0.5128,0.5109,0.5085,0.5066,0.5073,0.505,0.5034,0.497,0.4951,0.4945,0.4926,0.502,0.502,0.502,0.502,0.5135,0.51,0.5109,0.5058,0.5055,0.5013,0.4992,0.4998,0.4956,0.4982,0.4964,0.4989,0.4934,0.4917,0.5018,0.5018,0.5019,0.5019,0.5019,0.5077,0.5059,0.5048,0.5004,0.497,0.4962,0.4921,0.4921,0.492,0.4903,0.4884,0.4884,0.4881,0.4894,0.4894,0.4894,0.4894,0.4894,0.4893,0.5021,0.5008,0.4974,0.4945,0.4925,0.4898,0.4879,0.4859,0.4836,0.4839,0.4839,0.4844,0.4931,0.4951,0.489,0.489,0.4891,0.4891,0.4892,0.4924,0.4946,0.4893,0.4873,0.4838,0.4803,0.4804,0.4763,0.4746,0.4726,0.4736,0.4802,0.4806,0.4813,0.4828,0.4739,0.4739,0.4739,0.4739,0.4872,0.4875,0.482,0.4788,0.4756,0.4751,0.4689,0.4673,0.466,0.4649,0.4663,0.4685,0.4692,0.4692,0.4701,0.4716,0.46,0.46,0.46,0.4811,0.4811,0.4758,0.4746,0.4718,0.4693,0.4634,0.4595,0.4585,0.4594,0.464,0.4645,0.4682,0.4695,0.47,0.4715,0.4742,0,0]}]]